TimeCDT,TemperatureF,Dew PointF,Humidity,Sea Level PressureIn,VisibilityMPH,Wind Direction,Wind SpeedMPH,Gust SpeedMPH,PrecipitationIn,Events,Conditions,WindDirDegrees,DateUTC
12:15 AM,50.0,49.5,98,29.97,2.5,ENE,6.9,-,N/A,,Overcast,70,2012-10-23 05:15:00
12:35 AM,50.0,49.5,98,29.96,3.0,ENE,5.8,-,N/A,,Overcast,70,2012-10-23 05:35:00
12:55 AM,50.2,49.3,97,29.96,4.0,ENE,5.8,-,N/A,,Overcast,70,2012-10-23 05:55:00
1:35 AM,50.2,49.1,96,29.95,5.0,ENE,6.9,-,N/A,,Overcast,70,2012-10-23 06:35:00
1:55 AM,50.2,48.7,95,29.95,5.0,ENE,3.5,-,N/A,,Overcast,60,2012-10-23 06:55:00
2:35 AM,50.4,48.2,92,29.93,7.0,ENE,6.9,-,N/A,,Overcast,70,2012-10-23 07:35:00
2:55 AM,49.5,47.5,93,29.93,10.0,ENE,6.9,-,N/A,,Scattered Clouds,70,2012-10-23 07:55:00
3:15 AM,49.3,46.9,92,29.92,10.0,ENE,5.8,-,N/A,,Scattered Clouds,70,2012-10-23 08:15:00
3:55 AM,48.6,46.4,92,29.91,10.0,ENE,6.9,-,N/A,,Scattered Clouds,70,2012-10-23 08:55:00
4:15 AM,48.6,45.7,90,29.91,10.0,East,5.8,-,N/A,,Clear,90,2012-10-23 09:15:00
4:55 AM,47.5,44.8,90,29.93,10.0,East,4.6,-,N/A,,Scattered Clouds,100,2012-10-23 09:55:00
5:15 AM,46.8,44.6,92,29.93,10.0,East,6.9,-,N/A,,Clear,90,2012-10-23 10:15:00
5:35 AM,46.9,44.6,92,29.93,10.0,East,6.9,-,N/A,,Scattered Clouds,90,2012-10-23 10:35:00
5:55 AM,46.6,44.6,93,29.93,10.0,East,10.4,-,N/A,,Scattered Clouds,90,2012-10-23 10:55:00
6:35 AM,47.3,44.8,91,29.94,10.0,East,3.5,-,N/A,,Overcast,100,2012-10-23 11:35:00
6:55 AM,47.3,45.0,92,29.94,10.0,East,5.8,-,N/A,,Overcast,90,2012-10-23 11:55:00
7:35 AM,47.5,45.5,93,29.93,10.0,East,8.1,-,N/A,,Overcast,80,2012-10-23 12:35:00
7:55 AM,47.5,45.5,93,29.93,7.0,East,8.1,-,N/A,,Overcast,90,2012-10-23 12:55:00
8:15 AM,47.5,45.5,93,29.93,5.0,East,8.1,-,N/A,,Overcast,90,2012-10-23 13:15:00
8:35 AM,47.5,45.9,94,29.93,5.0,East,8.1,-,N/A,,Overcast,80,2012-10-23 13:35:00
9:15 AM,48.2,46.4,93,29.93,5.0,East,6.9,-,N/A,,Overcast,90,2012-10-23 14:15:00
10:15 AM,49.1,46.8,92,29.93,5.0,ESE,8.1,-,N/A,,Overcast,120,2012-10-23 15:15:00
10:55 AM,49.1,47.3,93,29.91,4.0,ESE,8.1,-,N/A,,Overcast,110,2012-10-23 15:55:00
11:15 AM,49.1,47.8,95,29.91,3.0,ESE,8.1,-,N/A,,Overcast,110,2012-10-23 16:15:00
11:35 AM,49.6,48.7,97,29.90,2.0,East,10.4,-,N/A,,Overcast,100,2012-10-23 16:35:00
11:55 AM,50.4,49.1,95,29.90,2.5,ESE,6.9,-,N/A,,Overcast,120,2012-10-23 16:55:00
12:15 PM,50.9,49.5,95,29.89,3.0,ESE,8.1,-,N/A,,Overcast,110,2012-10-23 17:15:00
12:35 PM,51.1,50.0,96,29.89,1.2,SE,6.9,-,0.12,Rain,Heavy Rain,130,2012-10-23 17:35:00
12:55 PM,51.8,51.1,97,29.89,2.0,SE,6.9,-,0.12,Thunderstorm,Overcast,140,2012-10-23 17:55:00
1:15 PM,51.8,51.1,97,29.88,2.0,ESE,6.9,-,N/A,,Overcast,120,2012-10-23 18:15:00
1:35 PM,52.2,51.6,98,29.87,2.0,ESE,4.6,-,N/A,,Overcast,120,2012-10-23 18:35:00
1:55 PM,52.5,51.8,97,29.87,1.8,ESE,4.6,-,N/A,,Overcast,120,2012-10-23 18:55:00
2:35 PM,52.7,52.2,98,29.86,1.0,SE,6.9,-,0.01,,Overcast,130,2012-10-23 19:35:00
2:55 PM,52.9,52.7,99,29.85,0.8,ESE,5.8,-,0.01,,Overcast,120,2012-10-23 19:55:00
3:15 PM,53.1,52.9,99,29.84,0.5,ESE,6.9,-,N/A,Fog,Fog,110,2012-10-23 20:15:00
3:35 PM,53.6,53.4,99,29.84,0.5,ESE,6.9,-,N/A,Fog,Fog,120,2012-10-23 20:35:00
3:55 PM,54.0,54.0,100,29.84,0.5,SE,6.9,-,N/A,Fog,Fog,130,2012-10-23 20:55:00
4:15 PM,54.5,54.1,99,29.84,0.5,ESE,4.6,-,N/A,Fog,Fog,110,2012-10-23 21:15:00
4:35 PM,54.5,54.3,99,29.84,0.5,ESE,6.9,-,N/A,Fog,Fog,120,2012-10-23 21:35:00
4:55 PM,54.5,54.5,100,29.84,0.5,ESE,6.9,-,N/A,Fog,Fog,110,2012-10-23 21:55:00
5:15 PM,54.7,54.7,100,29.84,0.5,ESE,6.9,-,N/A,Fog,Fog,110,2012-10-23 22:15:00
5:35 PM,54.9,54.9,100,29.84,0.5,ESE,8.1,-,N/A,Fog,Fog,110,2012-10-23 22:35:00
5:55 PM,55.2,55.2,100,29.85,0.8,ESE,8.1,-,N/A,,Overcast,110,2012-10-23 22:55:00
6:15 PM,55.4,55.4,100,29.85,1.5,ESE,6.9,-,N/A,,Overcast,110,2012-10-23 23:15:00
6:35 PM,55.8,55.8,100,29.86,1.8,SE,6.9,-,N/A,,Overcast,140,2012-10-23 23:35:00
6:55 PM,55.9,55.8,99,29.87,1.2,ESE,5.8,-,N/A,,Overcast,120,2012-10-23 23:55:00
7:15 PM,55.9,55.8,99,29.87,1.2,ESE,5.8,-,N/A,,Overcast,120,2012-10-24 00:15:00
7:35 PM,56.3,56.1,99,29.88,1.2,ESE,5.8,-,N/A,,Overcast,110,2012-10-24 00:35:00
7:55 PM,56.3,56.3,100,29.88,1.8,ESE,5.8,-,N/A,,Overcast,110,2012-10-24 00:55:00
8:15 PM,56.5,56.3,99,29.87,1.8,ESE,9.2,-,N/A,Rain,Light Rain,110,2012-10-24 01:15:00
8:35 PM,56.7,56.7,100,29.87,1.0,ESE,6.9,-,N/A,,Overcast,110,2012-10-24 01:35:00
8:55 PM,56.8,56.8,100,29.86,0.8,ESE,9.2,-,N/A,,Overcast,110,2012-10-24 01:55:00
9:15 PM,57.2,57.2,100,29.87,0.8,SE,3.5,-,N/A,,Overcast,130,2012-10-24 02:15:00
9:35 PM,57.4,57.4,100,29.87,1.2,SE,5.8,-,N/A,,Overcast,130,2012-10-24 02:35:00
9:55 PM,57.6,57.6,100,29.86,1.0,ESE,4.6,-,N/A,,Overcast,120,2012-10-24 02:55:00
10:15 PM,57.6,57.6,100,29.87,1.0,SE,5.8,-,N/A,,Overcast,130,2012-10-24 03:15:00
10:35 PM,57.7,57.7,100,29.87,1.0,ESE,6.9,-,N/A,,Overcast,120,2012-10-24 03:35:00
10:55 PM,57.6,57.6,100,29.88,0.8,SE,4.6,-,N/A,,Overcast,140,2012-10-24 03:55:00
11:15 PM,57.4,57.4,100,29.88,0.5,SE,3.5,-,N/A,Rain,Light Rain,140,2012-10-24 04:15:00
11:35 PM,57.4,57.4,100,29.85,0.5,ESE,8.1,-,0.02,Rain,Light Rain,120,2012-10-24 04:35:00
11:55 PM,57.2,57.2,100,29.86,0.5,ESE,6.9,-,0.02,,Light Drizzle,110,2012-10-24 04:55:00